CZ-6A DEB, 55186

Orbit data source: Space-Track

CZ-6A DEB, 55186 is space debris in SSO originally from a launch on Fri, 11 Nov 2022 UTC launched from the Taiyaun Space Center, China (TSC). Debris objects in space refer to the collection of defunct objects orbiting the Earth. Examples of debris include non-operational satellites, rocket bodies, and fragments generated from explosions, collisions, or faulty payload assembly.

Loading next visibility...
Identifier
55186, 2022-151VB
Orbit
SSO
Country
Flag of CNCN / PRC
Related business
Manufacturer
SAST
Mission
Spacecraft
Bus & Motor
Unknown
Mass
Unknown
Launch date (UTC)
2022-11-11 (4 years ago)
Launch vehicle
Unknown
Launch site
Taiyaun Space Center, China (TSC)
Object type
Payload
Rocket body
Debris
Shape & HBR
Unknown shape, 0.1 m
Radar Cross Section
Medium (>0.1 m² and <1 m²)

Expand to show TLE details & history
Last TLE update: 2 days ago

TLE from 2 days ago
0 CZ-6A DEB
1 55186U 22151VB  26171.13538659  .00004130  00000-0  82269-3 0  9991
2 55186  98.6418 234.0622 0067872 279.9013  79.4529 14.61169806182024
Epoch: 2026-06-20T03:14Z
TLE epoch observation values (Epoch: 2026-06-20T03:14:57.401Z)
Latitude
-0.00006°
Longitude
-83.03132°
Altitude
683.905 km
Speed
7.519 km/s
True Right ascension
15h 36m 14s
True Declination
0° 00' 00"
Sunlit
Object was in full shadow at epoch
Visualization orbit readout
Latitude
Unknown
Longitude
Unknown
Altitude
Unknown
Speed
Unknown
Apparent Right ascension
Unknown
Apparent Declination
Unknown
Sunlit
N/A
Visualization observer readout
Local Sidereal Time
21:30:35
Azimuth
Unknown
Elevation
Unknown
Doppler factor
Unknown
Orbital elements
Apogee altitude
734.449 km
Perigee altitude
638.551 km
Semi-major axis
7,064.637 km
Eccentricity
0.00679
Inclination
98.6418°
RAAN
234.0622°
Arg. of periapsis
279.9013°
True anomaly
80.21868°
Mean anomaly
79.4529°
Eccentric anomaly
79.83567°
Mean motion
3.65518 °/min
Orbital period
98.49 mins
BSTAR
0.00082269
Loading maneuver chart data...
Computing Atmospheric mass density...
Loading historical data...
Loading historical data...
Loading historical data...
Loading historical data...
Loading historical data...
Loading historical data...
Loading historical data...

Documentation

Showing up to 5 results
|